Wind_Speed
20 19 17 15 12 10 9 7 5 4 2 4 6 8 9 10 11 12 12 12 12 12 12 12 13 13 14 14 14 13 13 13 12 12 11 10 8 7 7 6 6 6 4 4
22 20 18 17 15 13 11 9 6 5 5 5 6 8 7 8 10 10 11 11 11 11 11 11 11 12 13 13 13 13 12 12 12 12 11 10 9 8 7 7 6 6 5 4
23 22 21 20 17 15 13 11 9 8 7 7 7 7 8 7 8 8 8 9 9 10 10 10 10 11 11 12 12 12 12 12 12 12 12 11 10 9 8 7 7 6 5 5
26 25 23 22 19 17 16 13 13 12 10 9 9 9 9 8 7 6 7 7 7 8 9 9 9 9 10 10 11 11 11 11 11 11 12 11 11 11 9 8 7 6 5 5
27 26 25 23 21 19 17 16 16 16 15 14 12 11 10 10 8 7 7 7 6 8 8 8 8 8 9 10 10 10 10 10 11 11 11 12 12 11 10 9 8 7 6 5
28 27 27 26 23 21 20 20 19 19 18 17 14 13 12 11 10 10 9 8 7 8 7 7 7 8 8 9 9 9 9 10 10 11 11 11 11 12 11 10 8 8 7 7
30 29 28 27 27 25 24 23 22 22 21 19 15 14 13 12 11 11 10 9 8 8 7 6 6 7 7 8 9 9 9 9 10 11 11 10 11 12 12 11 10 9 8 7
31 30 29 28 28 27 26 26 25 24 22 20 18 16 12 11 10 10 9 8 8 8 7 6 7 7 7 8 8 9 9 9 10 11 11 11 11 12 12 11 11 10 9 7
31 31 30 29 28 28 27 27 25 24 22 21 18 16 14 12 10 10 9 9 9 8 8 7 6 7 7 7 8 9 10 10 10 11 11 12 11 12 11 11 11 10 10 8
32 32 31 30 30 29 28 27 27 26 24 22 20 18 15 11 10 11 11 9 9 9 9 8 7 7 7 8 8 9 10 10 11 11 12 12 12 12 11 12 12 11 10 10
33 33 32 31 31 30 29 28 28 27 26 24 22 21 17 13 12 12 12 12 11 10 9 9 8 9 9 8 9 10 10 11 11 11 12 12 12 12 11 11 12 12 11 10
33 34 33 33 31 29 30 29 28 29 28 26 25 23 20 17 14 14 13 12 12 10 9 9 9 9 10 9 9 10 11 12 11 11 12 12 12 12 12 12 12 12 11 11
34 35 34 34 33 32 32 31 30 29 29 28 27 24 22 20 18 17 15 13 13 12 11 11 11 11 10 10 10 11 12 12 12 12 12 12 12 12 12 12 12 12 12 11
34 35 35 34 33 33 33 32 31 31 31 29 28 26 23 22 21 19 18 16 15 14 13 12 12 12 12 12 12 12 12 12 12 12 12 12 12 13 13 13 13 13 12 12
35 35 34 34 34 34 33 32 33 33 32 30 29 27 24 23 22 21 20 19 17 16 14 14 14 14 14 14 13 13 13 12 13 13 13 13 13 13 14 13 13 13 13 14
36 37 36 35 35 35 35 34 33 33 32 31 30 29 26 24 23 23 21 20 20 18 16 16 15 15 15 14 14 14 13 13 13 13 14 14 14 14 14 14 14 14 14 15
37 37 37 36 36 37 38 34 33 33 32 31 30 29 28 26 25 23 21 20 20 20 19 18 16 16 15 15 15 15 14 14 14 14 14 14 14 14 14 14 14 15 15 16
37 37 38 38 37 39 35 33 32 31 31 31 30 29 28 27 26 24 24 22 21 21 20 19 17 17 17 16 16 16 16 16 15 15 15 15 15 15 15 15 16 16 17 17
36 37 38 38 39 38 36 33 32 31 31 31 31 30 30 28 28 27 26 24 23 22 20 20 18 18 18 18 18 17 17 17 16 16 17 17 16 16 16 16 16 17 17 17
36 37 37 38 39 39 36 34 32 32 32 31 31 31 31 31 30 28 26 25 25 24 22 21 20 20 20 20 19 19 19 18 17 17 18 18 17 17 17 17 18 18 17 18
37 36 36 36 37 37 36 36 34 34 33 32 32 31 31 31 31 29 29 28 27 26 24 23 22 22 22 20 20 21 20 19 18 18 19 18 18 18 18 18 19 19 19 19
36 36 35 36 36 37 36 37 38 36 33 32 32 33 33 32 31 30 30 29 29 27 26 24 22 22 22 22 22 21 21 19 19 19 20 20 19 19 19 19 19 19 20 20
35 35 34 36 36 34 35 36 37 37 35 33 32 32 34 34 32 31 30 30 28 27 26 24 23 23 24 24 24 23 22 21 20 20 21 21 20 20 20 20 20 20 20 21
36 35 36 37 37 35 34 34 35 35 36 34 33 32 32 33 32 32 31 31 29 28 27 25 24 24 24 25 24 23 23 23 21 22 23 22 21 20 20 20 20 21 22 22
35 35 37 37 36 35 35 35 34 34 35 35 34 33 32 31 32 32 32 32 31 30 28 27 26 25 25 24 23 22 22 21 21 21 22 21 21 20 20 20 21 22 23 23
34 34 36 35 35 35 36 37 36 35 35 35 35 35 31 30 30 31 31 31 31 31 30 29 28 27 25 25 24 24 23 22 22 22 21 21 21 20 21 21 22 23 23 23
Wind_Direction
206 201 194 192 197 196 187 198 208 202 249 315 327 341 352 360 8 13 18 24 33 36 35 33 36 39 42 43 40 39 39 41 42 43 42 44 43 38 35 31 30 32 32 34
207 204 199 200 203 202 198 200 212 210 232 277 305 323 329 344 359 7 15 23 26 26 28 29 33 35 36 37 37 36 37 37 37 39 37 37 33 29 24 24 22 25 26 26
211 206 205 205 204 203 202 196 207 219 240 256 272 294 310 329 351 1 9 17 19 17 16 22 28 31 33 33 33 34 33 31 31 31 31 30 27 24 20 19 16 14 12 10
213 210 208 206 208 207 206 205 206 214 232 240 256 277 297 311 327 344 354 357 3 4 3 11 20 23 24 25 27 28 28 25 24 24 23 24 24 23 17 12 10 8 6 3
215 214 213 210 207 209 210 208 210 213 226 232 241 261 276 288 300 316 327 336 340 343 346 357 8 15 16 16 18 20 21 18 18 18 19 22 21 20 18 11 5 359 354 349
218 218 217 213 209 212 213 214 215 218 222 227 235 249 260 274 290 306 315 323 326 327 324 338 354 2 7 8 8 10 13 12 12 12 13 14 15 16 14 9 2 354 347 343
218 219 219 217 214 213 215 217 219 221 225 230 233 242 256 272 287 302 316 319 321 318 311 328 340 345 352 358 359 359 3 5 5 4 6 6 4 6 6 3 358 353 347 338
218 218 220 220 221 220 218 221 223 224 228 231 235 243 257 269 273 291 305 310 317 318 312 319 327 330 338 345 349 349 351 357 358 357 357 356 356 357 355 353 350 347 345 339
221 219 219 222 222 222 222 224 225 227 229 232 234 241 250 258 263 279 291 303 311 305 304 307 310 315 322 331 340 342 345 349 349 348 348 349 350 349 349 347 344 344 344 338
222 222 220 222 224 224 225 224 225 227 228 231 234 240 251 260 265 281 283 288 294 290 296 299 297 306 311 318 327 333 338 341 341 342 344 347 346 345 344 344 345 342 337 333
221 222 220 221 223 223 223 222 225 228 231 233 236 239 244 248 259 267 273 280 284 287 281 287 290 294 296 304 315 325 331 331 332 333 336 339 340 339 339 340 341 340 339 336
222 224 222 221 221 222 223 223 224 228 230 232 236 241 242 245 254 261 268 279 280 276 279 279 277 281 286 296 308 317 323 325 326 328 330 334 334 334 334 336 337 335 331 332
222 224 224 222 221 221 223 222 224 228 230 232 236 242 244 247 251 259 265 270 274 278 277 276 273 277 280 288 298 309 316 321 322 323 324 327 328 329 330 332 335 333 330 326
222 225 225 224 224 223 225 224 225 228 230 232 235 239 243 248 252 258 265 268 271 276 276 274 272 271 275 285 290 298 306 312 315 317 317 319 321 324 326 326 326 327 327 325
220 223 224 223 224 224 226 226 226 228 231 233 234 237 239 246 253 259 263 266 268 275 275 274 274 272 274 279 283 290 296 302 306 309 311 314 315 316 318 320 320 321 323 324
219 221 222 222 222 224 226 227 229 230 231 233 235 235 235 242 250 257 262 266 266 271 271 271 272 272 275 278 281 284 287 291 298 303 307 309 311 312 313 314 315 316 318 319
219 221 221 221 221 225 226 227 230 230 229 232 234 235 235 239 246 252 257 261 265 268 269 270 271 270 271 273 277 280 282 285 291 297 302 302 305 309 310 311 312 314 316 317
222 222 223 220 219 223 224 225 228 230 231 231 232 232 233 238 244 248 254 258 262 266 265 265 268 268 267 267 270 274 278 283 288 293 298 300 301 304 306 306 308 311 312 313
222 224 225 223 221 224 221 222 225 229 232 233 232 232 232 235 239 244 251 257 260 266 265 263 265 265 266 265 266 269 273 278 283 287 291 295 298 300 303 305 305 308 311 312
223 224 225 224 222 222 221 220 224 229 231 232 233 232 232 235 239 244 248 253 257 260 263 263 265 264 266 269 267 269 273 275 279 282 285 288 292 295 299 302 304 306 310 312
224 225 225 225 225 223 221 218 221 227 231 232 233 233 234 237 242 246 249 253 257 258 259 262 263 264 266 266 267 269 271 273 274 277 281 285 289 290 293 298 303 306 309 310
225 225 225 225 225 224 223 221 223 229 233 234 235 236 237 240 242 245 248 252 256 259 259 260 263 262 262 264 266 268 271 273 273 276 280 282 285 286 290 296 300 303 306 308
224 225 225 224 224 225 225 226 228 229 231 234 237 238 239 240 242 246 247 248 251 255 257 258 262 263 263 263 266 269 270 272 275 276 279 281 284 286 289 292 296 300 303 306
224 225 223 223 223 223 224 227 229 229 231 233 236 238 238 236 239 243 247 249 250 254 258 259 260 261 261 263 265 268 269 270 274 277 278 280 282 283 286 289 292 297 301 304
225 226 225 224 224 224 225 228 230 231 231 233 235 237 236 237 241 244 246 247 249 252 254 256 257 258 260 263 266 268 272 276 277 279 281 281 282 282 287 291 293 296 299 302
225 226 226 225 224 223 224 227 228 231 232 233 235 237 236 236 240 243 246 247 249 251 252 254 255 256 260 264 266 268 270 272 274 277 279 280 281 283 287 291 293 296 298 300
Height
5924 5928 5931 5933 5935 5936 5937 5938 5939 5939 5940 5940 5941 5941 5942 5941 5940 5938 5936 5935 5934 5933 5932 5931 5929 5927 5926 5924 5922 5920 5919 5918 5916 5915 5914 5912 5911 5910 5909 5907 5906 5904 5903 5903
5922 5925 5929 5930 5932 5934 5935 5937 5937 5938 5939 5940 5940 5941 5941 5941 5940 5939 5937 5936 5935 5934 5933 5932 5931 5929 5927 5926 5924 5922 5921 5920 5918 5917 5915 5913 5912 5911 5909 5908 5906 5905 5904 5903
5918 5923 5925 5927 5929 5932 5933 5935 5936 5937 5938 5938 5940 5940 5940 5940 5940 5939 5938 5937 5936 5935 5935 5934 5932 5931 5929 5927 5926 5924 5923 5921 5919 5918 5916 5914 5912 5911 5909 5908 5906 5905 5904 5902
5914 5918 5920 5923 5925 5928 5931 5933 5934 5935 5936 5937 5939 5939 5939 5939 5939 5939 5938 5938 5937 5936 5935 5934 5933 5931 5930 5929 5927 5926 5924 5922 5921 5919 5917 5915 5913 5911 5909 5908 5906 5905 5904 5902
5910 5913 5916 5919 5923 5925 5928 5930 5932 5933 5934 5935 5936 5937 5938 5938 5938 5938 5938 5938 5937 5936 5935 5935 5933 5932 5931 5929 5928 5926 5925 5923 5921 5920 5918 5916 5914 5912 5910 5908 5906 5904 5903 5901
5905 5908 5911 5915 5919 5921 5924 5927 5929 5930 5931 5933 5934 5934 5935 5935 5936 5937 5937 5937 5936 5935 5935 5934 5933 5932 5931 5930 5928 5927 5925 5923 5922 5920 5918 5916 5914 5911 5909 5907 5905 5904 5902 5900
5899 5903 5907 5911 5914 5917 5920 5923 5925 5927 5927 5929 5931 5931 5933 5934 5934 5935 5935 5935 5935 5934 5934 5933 5932 5931 5930 5929 5928 5926 5925 5923 5922 5920 5918 5916 5914 5911 5909 5907 5905 5903 5901 5899
5893 5898 5902 5906 5909 5912 5915 5919 5921 5923 5925 5927 5928 5928 5931 5931 5932 5932 5932 5933 5933 5933 5932 5932 5931 5930 5930 5929 5927 5926 5924 5922 5921 5919 5917 5915 5913 5911 5909 5906 5904 5902 5900 5898
5887 5892 5897 5900 5904 5908 5910 5913 5917 5919 5921 5922 5924 5925 5927 5928 5929 5929 5929 5930 5931 5931 5930 5930 5930 5929 5929 5928 5927 5925 5924 5922 5920 5918 5916 5914 5912 5910 5907 5905 5903 5901 5899 5897
5880 5885 5890 5894 5898 5901 5905 5909 5911 5913 5916 5917 5920 5921 5924 5925 5926 5927 5927 5928 5928 5929 5928 5928 5928 5928 5927 5926 5925 5924 5923 5921 5919 5917 5915 5913 5910 5908 5906 5903 5901 5899 5897 5895
5873 5878 5884 5887 5891 5895 5899 5902 5905 5908 5911 5913 5915 5919 5920 5922 5923 5924 5925 5925 5926 5926 5926 5926 5926 5926 5925 5925 5923 5922 5921 5919 5917 5915 5913 5911 5909 5906 5904 5902 5900 5897 5896 5894
5867 5871 5876 5881 5886 5890 5893 5896 5900 5903 5906 5908 5910 5916 5916 5918 5919 5920 5921 5922 5922 5922 5923 5923 5923 5923 5923 5922 5921 5920 5919 5917 5915 5913 5911 5909 5906 5905 5902 5900 5898 5896 5894 5892
5860 5865 5870 5875 5881 5884 5886 5890 5894 5897 5901 5903 5905 5911 5911 5913 5914 5915 5916 5918 5918 5919 5919 5920 5920 5920 5919 5919 5918 5917 5916 5915 5913 5911 5909 5907 5905 5902 5900 5899 5896 5894 5892 5890
5854 5858 5864 5869 5873 5878 5881 5884 5888 5891 5894 5897 5900 5904 5906 5907 5909 5910 5912 5914 5914 5915 5915 5916 5916 5916 5916 5916 5916 5915 5914 5912 5911 5909 5907 5905 5903 5901 5899 5897 5895 5893 5890 5888
5847 5851 5856 5862 5866 5870 5874 5878 5881 5884 5888 5891 5895 5898 5901 5903 5904 5905 5908 5909 5910 5910 5911 5912 5912 5912 5912 5912 5912 5911 5910 5909 5908 5906 5904 5903 5900 5899 5897 5895 5893 5890 5888 5886
5839 5844 5850 5855 5860 5863 5867 5871 5874 5878 5881 5885 5888 5892 5896 5897 5899 5901 5903 5903 5904 5905 5907 5907 5908 5908 5908 5908 5908 5908 5907 5906 5905 5903 5901 5900 5898 5896 5894 5892 5890 5888 5886 5884
5832 5838 5843 5848 5853 5856 5860 5865 5868 5871 5875 5879 5882 5887 5890 5892 5893 5896 5898 5899 5899 5901 5902 5903 5903 5903 5904 5904 5904 5904 5903 5902 5901 5900 5898 5897 5895 5893 5891 5890 5887 5886 5884 5881
5826 5831 5835 5841 5846 5848 5856 5860 5862 5865 5869 5872 5876 5880 5883 5886 5888 5891 5892 5894 5894 5896 5897 5898 5898 5898 5899 5899 5899 5899 5898 5897 5896 5896 5894 5893 5891 5890 5888 5886 5884 5882 5880 5878
5819 5824 5828 5833 5837 5842 5849 5853 5856 5859 5862 5866 5870 5873 5877 5879 5882 5884 5886 5888 5889 5891 5891 5893 5893 5894 5894 5894 5893 5894 5893 5892 5891 5891 5890 5889 5888 5886 5884 5883 5881 5878 5876 5874
5812 5816 5822 5826 5830 5835 5844 5848 5850 5854 5856 5860 5863 5867 5870 5873 5875 5879 5881 5882 5884 5886 5886 5887 5888 5889 5889 5888 5888 5889 5888 5887 5887 5887 5886 5885 5884 5882 5881 5879 5877 5875 5873 5870
5804 5809 5814 5818 5823 5828 5836 5840 5843 5847 5851 5855 5857 5860 5863 5866 5870 5874 5875 5877 5878 5879 5880 5882 5882 5883 5883 5883 5883 5883 5883 5882 5881 5882 5881 5880 5879 5878 5876 5875 5873 5871 5869 5866
5798 5803 5807 5812 5816 5824 5829 5833 5837 5840 5845 5848 5851 5854 5857 5860 5863 5865 5868 5870 5872 5873 5874 5875 5876 5877 5877 5878 5878 5878 5878 5877 5877 5876 5876 5875 5874 5873 5871 5870 5869 5867 5865 5862
5791 5796 5801 5806 5812 5817 5820 5825 5829 5833 5837 5840 5844 5847 5850 5853 5856 5858 5860 5863 5865 5866 5868 5869 5870 5871 5871 5872 5872 5872 5872 5872 5871 5870 5870 5870 5869 5868 5866 5865 5864 5862 5860 5858
5784 5788 5793 5798 5803 5808 5813 5817 5821 5825 5829 5833 5837 5840 5842 5845 5848 5851 5853 5855 5857 5860 5861 5862 5864 5864 5865 5865 5865 5866 5866 5866 5865 5865 5865 5864 5864 5863 5861 5860 5859 5857 5855 5853
5777 5782 5786 5791 5797 5801 5806 5810 5814 5818 5821 5825 5828 5832 5834 5837 5840 5843 5845 5848 5850 5852 5854 5855 5857 5858 5858 5859 5859 5859 5859 5859 5860 5860 5859 5858 5858 5857 5856 5855 5854 5852 5850 5848
5771 5775 5780 5784 5790 5794 5799 5802 5806 5810 5813 5816 5820 5823 5826 5830 5833 5835 5838 5841 5843 5844 5846 5848 5849 5851 5852 5852 5853 5853 5854 5854 5855 5854 5854 5853 5853 5852 5851 5849 5848 5846 5844 5842